Location: Unspecified
(0.0000°N, 0.0000°E)
Time: 08:58:44
(UTC+00:00)

Courier 1B Rocket - Pass Details

Date: 14 December 2018
Orbit: 920 x 1202 km, 28.2° (Epoch: 22 March)

Event Time Altitude Azimuth Distance (km) Brightness Sun altitude
Rises 14:52:26 0° 324° (NW) 3,999 8.3 41.0°
Reaches altitude 10° 14:56:04 10° 339° (NNW) 3,075 7.6 40.2°
Maximum altitude 15:01:32 21° 25° (NNE) 2,405 6.9 39.1°
Drops below altitude 10° 15:07:03 10° 71° (ENE) 3,127 7.3 37.9°
Sets 15:10:46 0° 86° (E) 4,087 7.8 37.1°
